Regional Weather Roundup
Issued by NWS

Home | Current Version | Previous Version | Graphics & Text | Print | Product List | Glossary On
Versions: 1 2 3 4 5 6 7 8 9 10 11 12 13 14 15 16 17 18 19 20 21 22 23 24 25 26 27 28 29 30 31 32 33 34 35 36 37 38 39 40 41 42 43 44 45 46 47 48 49 50
000
ASUS45 KSLC 272110
RWRUT

UTAH REGIONAL WEATHER ROUNDUP
NATIONAL WEATHER SERVICE SALT LAKE CITY UT
300 PM MDT THU JUL 27 2017

UTZ001>011-023>025-272200-

NORTHERN UTAH

CITY           SKY/WX    TMP DP  RH WIND       PRES   REMARKS
BRIGHAM CITY     N/A     86  44  23 SW8       30.14F
HILL AFB       MOSUNNY   85  49  29 W8        30.17F
LOGAN            N/A     86  54  33 SW7       30.13F
OGDEN            N/A     85  49  28 MISG      30.14F
SALT LAKE CITY   N/A     87  55  33 W8        30.12F
TOOELE VALLEY    N/A     86  54  32 N9        30.14F
WENDOVER         N/A     86  52  30 VRB3      30.12F
HEBER CITY       N/A     82  45  26 SW8       30.19F
WEST JORDAN      N/A     85  64  49 NW12      30.16F

$$

UTZ011>015-024>027-272200-

CENTRAL/NORTHEAST UTAH

CITY           SKY/WX    TMP DP  RH WIND       PRES   REMARKS
PROVO AIRPORT    N/A     88  51  28 NW8       30.14F
MOAB/CANYONLAN   N/A     94  51  23 NW12      30.05F HX  91
DELTA            N/A     90  43  19 W9        30.14F
PRICE            N/A     84  49  29 SW6       30.20F
RICHFIELD      PTSUNNY   79  66  65 CALM      30.18F
ROOSEVELT      SUNNY     91  46  21 S9        30.15F
VERNAL         SUNNY     90  50  25 SW10      30.14F

$$

UTZ013>016-019>022-027-272200-

SOUTHERN UTAH

CITY           SKY/WX    TMP DP  RH WIND       PRES   REMARKS
BRYCE CANYON   PTSUNNY   78  50  37 S8        30.36F
CEDAR CITY       N/A     83  53  35 W3        30.20F
MILFORD          N/A     94  46  19 VRB6      30.13F HX  90
ST GEORGE        N/A     96  59  29 VRB6      29.98F HX  95
HANKSVILLE       N/A     93  46  20 CALM      30.09F
KANAB          MOSUNNY   91  55  29 SW13      30.16F
BLANDING         N/A     90  44  19 NW13      30.24F

$$

REGIONAL REPORTS     COLORADO/ARIZONA

CITY           SKY/WX    TMP DP  RH WIND       PRES   REMARKS
CRAIG, CO      SUNNY     88  47  24 SW8       30.22F
GRAND JUNCTION SUNNY     95  45  17 W10       30.08F HX  91
RIFLE, CO      SUNNY     91  51  25 NW5       30.13F
MONTROSE, CO   SUNNY     89  45  21 W7        30.18F
CORTEZ, CO     CLOUDY    91  48  22 S8        30.16F
COLORADO CITY    N/A     91  54  27 NW6       30.18F
PAGE, AZ         N/A     96  52  22 N9        30.05F HX  93
GRAND CANYON     N/A     84  46  26 SW8       30.28F
KINGMAN, AZ      N/A     99  53  21 MISG      30.03F HX  96
FLAGSTAFF, AZ    N/A     66  59  78 E3        30.34F

$$

REGIONAL REPORTS    NEVADA/IDAHO/WYOMING

CITY           SKY/WX    TMP DP  RH WIND       PRES   REMARKS
LAS VEGAS, NV    N/A    104  53  18 VRB5      29.91F HX 102
ELY, NY        CLOUDY    81  48  31 MISG      30.25F
ELKO, NV         N/A     90  39  16 S12       30.16F
POCATELLO, ID  MOSUNNY   83  50  31 VRB6      30.16F
BURLEY, ID       N/A     82  47  29 CALM      30.12F
FORT BRIDGER,  MOCLDY    85  39  19 W18G30    30.32F
EVANSTON, WY   MOSUNNY   77  46  33 W16G24    30.31F
ROCK SPRINGS,  MOSUNNY   82  40  22 SW12G21   30.26F
KEMMERER, WY     N/A     77  43  29 SW13      30.31F

$$



USA.gov is the U.S. government's official web portal to all federal, state and local government web resources and services.